Torna al catalogo

STARLINK-4376

AttivoComunicazioniSSO
NORAD 53216·PAYLOAD·🇺🇸 United States

Lanciato Jul 22, 2022 da Vandenberg Space Force Base

Loading…

Prossimi Passaggi (prossime 24 ore)

TLE

AggiornatoSource: CelesTrak SupGP

Epoca: Sep 14, 2026, 14:25 UTC

1 53216C 22084AD  26257.60118056  .00060580  00000+0  18802-2 0  2578
2 53216  97.2844 312.5078 0001318  95.7567  80.0054 15.33413691    15

Traccia STARLINK-4376 in tempo reale con AllMySat

Download on the App Store